GFSNIL_sfc_temp_000.txt.gz
Temp
50 51 52 52 47 49 46 45 44 44 44 44 44 42 41 40 39 38 37 36 36 36
53 53 52 52 48 47 45 47 44 43 43 43 42 42 40 38 37 36 36 35 35 35
54 52 48 46 44 44 44 45 44 43 42 42 41 40 39 37 36 36 35 37 35 35
48 47 46 44 45 44 44 45 46 45 43 42 41 39 37 36 36 35 34 34 34 34
47 47 45 44 43 43 43 43 43 44 43 41 39 38 36 35 35 34 33 33 32 32
47 45 43 43 44 43 42 43 44 43 41 40 39 38 35 34 33 31 31 31 30 30
45 46 42 41 41 42 43 43 42 42 41 40 38 36 35 33 31 31 31 31 30 30
41 41 42 43 42 41 40 43 42 41 39 37 37 35 31 32 31 30 30 30 30 30
42 42 41 41 40 39 39 40 41 38 36 34 37 35 35 32 29 30 29 27 28 28
41 40 39 40 39 38 38 41 38 36 34 32 31 35 35 34 29 28 26 27 27 28
40 39 39 38 38 38 40 38 34 31 32 31 33 35 35 33 28 28 27 27 26 26
38 38 37 38 37 37 36 32 32 32 31 29 28 34 34 30 24 25 25 28 28 28
38 37 37 36 34 34 34 33 32 30 28 31 27 32 32 30 21 18 23 25 27 28
38 37 36 35 34 34 31 30 27 27 26 27 28 26 31 30 23 22 22 22 24 25

GFSNIL_sfc_temp_003.txt.gz
Temp
49 48 48 51 50 46 44 43 42 42 42 42 42 41 40 38 37 36 34 34 34 33
51 50 48 47 44 42 42 45 42 43 44 43 43 41 39 38 36 35 34 33 33 32
47 46 45 44 43 42 43 46 45 45 42 42 43 42 38 36 36 35 33 34 32 32
45 45 44 42 42 42 43 43 42 44 43 43 41 40 38 36 37 35 33 32 31 31
43 43 41 42 41 42 43 40 40 41 42 40 40 38 37 36 34 32 31 31 30 31
40 40 39 39 40 41 41 42 41 40 39 39 40 38 36 34 32 31 31 31 30 29
39 39 39 39 39 40 40 39 38 38 38 39 38 36 35 33 31 31 31 31 30 29
39 39 39 38 38 38 39 39 38 37 38 37 36 35 32 32 31 30 29 30 30 29
39 39 38 38 37 40 38 37 36 36 34 33 36 36 36 34 29 30 29 27 28 28
38 37 36 37 37 36 35 35 35 33 32 31 31 36 36 36 31 29 26 27 27 27
37 36 36 35 35 35 38 35 31 30 31 30 32 35 34 31 26 27 26 26 25 25
37 36 35 34 34 34 33 31 30 31 30 28 27 33 32 29 23 24 24 26 26 27
36 35 34 34 32 32 31 31 31 30 27 30 25 31 31 29 21 16 22 23 25 27
35 34 34 33 32 31 30 29 26 27 25 26 27 25 30 29 20 20 22 22 22 24

GFSNIL_sfc_temp_009.txt.gz
Temp
56 56 56 54 54 54 53 54 53 52 51 50 51 51 49 50 49 49 48 47 46 47
54 53 52 52 53 52 52 52 51 50 50 51 50 50 50 49 48 48 47 46 46 46
52 52 52 52 51 51 51 51 50 50 50 50 51 50 49 49 48 46 47 47 45 45
52 51 51 51 50 50 49 50 50 50 49 50 49 49 48 47 46 45 46 45 43 42
51 50 50 49 49 49 48 49 48 47 47 47 47 47 47 46 47 45 44 43 42 41
49 48 49 48 48 48 47 47 47 47 43 45 46 46 46 44 43 42 42 41 40 39
48 48 48 47 47 47 46 46 46 44 44 45 45 45 44 43 42 41 40 40 39 38
48 48 47 46 46 46 45 46 45 43 44 43 43 43 42 42 40 40 39 38 38 37
47 47 46 45 44 45 45 44 44 43 42 40 41 36 36 37 38 37 36 34 35 35
45 45 45 44 44 44 44 44 43 41 41 40 39 35 34 32 37 35 34 33 33 32
45 44 44 43 43 43 43 43 42 41 40 39 37 34 33 31 35 34 33 33 32 31
44 43 43 43 43 43 42 42 41 40 38 37 36 32 32 32 32 31 31 32 32 31
44 43 42 42 42 42 42 40 40 37 36 32 34 31 31 32 31 28 29 31 31 29
43 42 42 42 42 41 40 38 35 33 34 33 33 32 30 30 30 29 29 29 29 30

GFSNIL_sfc_temp_012.txt.gz
Temp
62 64 64 61 60 60 59 59 59 59 60 58 57 55 52 55 55 54 53 52 52 52
62 60 59 59 59 59 59 59 58 58 57 55 54 53 55 55 54 54 53 52 52 52
61 60 59 59 57 57 57 57 57 57 55 53 51 52 55 54 54 53 52 53 51 51
60 59 59 58 57 56 56 56 56 56 55 52 51 53 53 52 53 51 51 51 50 49
60 59 57 57 56 55 54 55 54 54 53 52 52 52 51 51 52 51 50 49 49 48
59 57 56 56 55 55 54 53 53 53 52 52 51 51 52 52 51 50 49 48 46 46
57 57 56 55 54 54 53 52 53 52 52 51 51 51 51 50 49 48 48 47 46 45
57 56 56 54 54 53 52 52 52 50 50 50 50 50 47 47 47 46 45 45 44 43
56 54 53 53 52 52 52 52 52 51 49 48 50 36 35 38 45 45 43 42 42 42
53 52 52 53 52 52 51 51 50 50 48 47 47 35 34 34 43 43 42 41 40 39
52 52 52 52 51 51 51 50 49 49 48 47 43 34 33 33 42 42 41 40 39 38
51 51 51 50 50 50 50 49 49 48 46 45 43 33 32 33 39 38 37 38 38 36
51 50 50 49 49 49 49 48 48 45 45 37 41 32 32 33 38 34 35 37 37 33
50 49 49 49 49 49 48 47 44 41 42 41 39 38 31 31 34 34 33 34 35 36

GFSNIL_sfc_temp_015.txt.gz
Temp
65 61 64 63 62 62 61 61 61 60 60 60 60 56 54 53 52 53 54 53 52 52
61 61 62 62 61 61 60 61 60 59 59 59 56 54 54 51 53 52 54 52 52 52
61 63 63 62 59 59 59 59 58 58 58 58 54 55 52 54 55 52 53 54 52 51
62 62 63 61 60 59 58 58 57 57 56 56 57 55 54 53 52 50 52 52 50 50
63 62 61 60 59 58 57 57 57 56 55 55 55 53 52 51 52 51 50 49 49 48
63 61 60 59 59 58 57 56 56 56 55 55 54 52 52 51 52 51 50 49 48 46
61 61 60 59 58 57 56 55 55 55 54 53 53 53 53 52 50 50 49 47 47 46
61 60 59 58 57 56 54 55 55 54 52 51 52 52 48 48 48 47 46 46 47 46
60 59 57 56 55 55 55 55 55 54 53 49 51 35 36 37 45 46 46 44 45 44
58 56 55 55 55 55 54 54 53 53 52 49 48 36 35 34 43 45 44 43 42 42
56 55 55 55 55 54 54 52 52 52 51 50 42 35 34 34 41 44 43 42 41 40
55 54 54 53 53 53 52 52 51 52 50 49 43 35 34 33 41 41 40 41 41 39
55 54 53 53 52 52 52 51 52 50 49 39 44 34 34 34 39 37 37 39 40 35
54 53 52 51 51 51 50 49 47 45 45 45 42 40 34 33 35 36 35 36 37 38

GFSNIL_sfc_temp_018.txt.gz
Temp
59 56 56 56 56 54 53 52 53 52 52 52 53 51 49 47 45 45 44 44 45 43
57 57 56 56 55 53 53 55 52 51 51 51 51 50 48 45 44 45 44 43 46 43
57 57 58 55 54 53 52 52 52 51 51 50 50 51 49 46 46 47 44 45 45 43
57 57 56 55 54 53 52 52 52 51 50 50 49 49 47 46 46 45 43 45 44 42
58 58 56 55 54 53 52 52 51 51 50 51 49 49 47 45 45 44 43 45 42 41
57 56 55 54 54 54 52 51 50 51 50 49 47 47 46 46 45 45 44 41 40 40
56 56 55 54 53 53 52 50 49 49 50 49 48 49 48 47 43 42 42 42 41 40
58 56 55 53 53 52 50 50 50 49 49 49 48 48 42 41 40 39 39 40 42 40
57 56 52 52 51 50 50 50 49 48 48 46 49 37 37 37 36 39 38 36 37 37
56 52 51 52 52 50 49 48 48 47 47 46 38 36 36 35 35 36 36 35 34 36
54 52 52 51 51 49 49 47 46 46 46 45 39 36 36 35 32 34 35 34 34 33
52 51 50 49 48 48 47 46 45 46 45 44 35 36 35 34 31 33 33 35 35 34
51 49 49 48 47 46 45 46 46 44 43 39 34 35 35 33 29 30 29 32 33 33
50 50 48 46 45 44 43 43 39 38 38 39 36 32 35 35 29 28 28 28 28 29

GFSNIL_sfc_temp_024.txt.gz
Temp
51 49 49 50 49 48 47 47 48 47 46 45 45 44 43 41 40 40 39 39 38 38
50 50 50 50 49 48 49 51 45 45 45 45 45 43 42 40 41 40 39 38 38 38
52 51 50 50 49 49 49 50 47 47 45 44 44 43 42 40 41 40 38 40 39 39
51 51 51 50 50 49 49 49 48 47 45 45 45 44 42 41 40 40 39 39 39 39
51 51 52 50 50 48 49 47 47 46 45 45 44 43 41 41 41 39 38 38 38 38
49 50 50 49 47 46 47 45 44 45 45 45 43 43 43 42 40 40 40 39 39 38
50 50 48 47 46 45 44 43 44 45 45 45 44 44 44 41 39 38 38 38 36 36
50 48 46 45 45 45 45 46 45 44 43 43 44 45 42 40 37 36 35 35 36 34
48 47 47 46 45 44 45 47 46 44 42 42 44 41 40 38 35 36 34 33 33 33
48 47 46 45 44 45 45 44 44 43 42 41 40 38 39 38 34 34 32 32 31 33
47 44 45 43 43 43 43 42 40 40 42 40 40 38 38 36 33 32 31 31 30 30
43 43 42 42 41 41 41 41 40 41 40 39 36 37 37 34 30 30 31 32 32 30
44 42 40 40 40 41 41 40 39 39 38 38 34 36 36 34 27 29 28 29 30 34
42 41 41 40 41 40 37 35 33 33 33 33 32 31 36 36 30 29 28 28 27 27

GFSNIL_sfc_temp_030.txt.gz
Temp
55 53 54 49 48 48 48 47 48 48 46 47 46 43 43 42 39 39 38 37 36 37
52 53 50 48 48 47 49 49 48 48 47 47 45 45 43 42 40 39 38 37 37 36
50 50 50 49 47 47 48 49 48 47 47 45 45 44 43 41 40 38 37 38 37 36
48 48 49 49 49 49 49 48 48 47 46 45 44 43 41 40 39 38 37 37 37 36
48 49 48 48 50 49 49 47 47 46 45 44 44 43 41 39 40 38 37 37 36 36
47 47 48 50 49 48 47 46 45 45 44 44 43 41 39 39 39 37 37 36 35 36
46 47 48 49 47 46 46 44 44 44 44 43 44 42 41 40 37 37 36 36 35 35
46 46 47 47 45 44 44 45 44 44 44 44 43 42 40 38 36 35 34 34 34 34
46 46 44 45 44 44 43 44 44 43 42 41 42 41 41 38 35 34 33 33 33 33
45 44 42 44 44 43 42 42 42 41 40 40 41 40 39 39 34 33 33 33 33 32
43 44 44 44 42 41 41 40 40 39 40 40 40 39 39 38 33 32 32 32 32 31
44 43 42 40 40 40 39 39 38 40 39 37 35 37 37 36 31 31 31 32 32 31
42 41 40 39 39 39 39 39 39 37 35 35 32 35 37 36 28 29 30 30 31 35
42 41 40 40 40 39 38 36 32 32 31 31 32 32 36 37 30 30 30 31 31 31

GFSNIL_sfc_temp_033.txt.gz
Temp
61 61 58 54 52 53 56 57 56 56 56 55 52 51 53 54 53 52 52 51 51 53
61 60 57 55 57 56 57 56 54 54 49 54 54 49 50 53 52 52 51 51 51 50
62 60 60 57 55 54 55 56 54 53 54 53 49 53 51 53 52 51 52 52 50 50
60 59 57 55 53 54 55 55 54 51 53 48 48 50 50 51 51 50 51 50 49 49
58 56 54 54 55 55 55 54 52 51 48 50 49 49 48 47 50 49 49 50 48 48
56 55 54 55 55 54 53 51 50 50 47 47 48 49 48 48 49 49 49 49 48 49
55 55 55 55 53 52 53 47 48 49 51 51 51 50 46 46 48 47 48 47 47 48
54 55 54 52 49 48 49 49 48 50 48 48 47 46 44 48 48 47 47 47 47 47
53 54 50 48 46 45 45 45 50 49 47 45 44 40 40 41 47 47 46 47 47 47
52 48 46 46 45 44 44 45 44 43 44 42 43 40 40 39 45 47 47 46 47 46
50 47 45 45 43 42 44 42 42 44 43 43 45 39 39 37 45 46 46 46 46 45
48 46 44 42 41 41 41 43 44 43 41 39 42 39 38 38 43 43 43 44 44 44
48 46 45 45 45 43 44 43 40 39 40 42 42 39 37 38 41 40 41 42 42 37
47 45 44 43 42 41 40 41 42 41 42 42 42 42 37 37 39 39 39 40 41 41

GFSNIL_sfc_temp_036.txt.gz
Temp
67 68 66 68 59 54 53 55 60 62 65 65 56 59 58 59 54 57 60 58 59 60
65 66 68 68 58 57 58 61 62 63 61 58 59 57 59 56 58 59 59 58 58 58
66 67 68 68 62 61 60 64 62 61 60 56 55 57 57 52 59 58 58 58 57 57
68 68 67 66 62 61 61 62 57 60 58 55 57 56 54 59 58 56 56 57 56 55
68 66 64 62 61 60 59 60 60 61 57 52 56 58 55 55 55 53 52 56 56 55
63 62 61 59 59 58 59 59 61 61 57 52 54 55 56 52 48 47 52 55 55 55
63 60 59 58 58 58 57 59 59 51 50 50 56 54 52 47 46 49 51 52 53 53
63 64 63 62 61 60 58 55 50 48 49 48 50 50 46 46 45 46 48 52 53 54
61 61 59 57 54 50 48 48 47 46 49 49 47 39 39 41 43 46 50 50 53 54
60 58 56 52 49 47 45 47 45 46 48 47 50 41 40 39 42 45 49 51 51 52
57 55 54 52 48 46 46 44 44 46 49 50 47 40 39 38 44 49 50 51 51 51
55 53 52 50 48 48 50 50 50 47 47 45 42 39 39 39 47 48 48 50 51 51
55 54 52 51 50 51 52 48 45 42 41 41 47 42 39 40 46 45 46 48 49 42
53 51 50 48 47 47 48 49 48 47 48 49 47 48 40 39 42 43 44 44 46 48

GFSNIL_sfc_temp_039.txt.gz
Temp
65 66 67 69 66 67 68 66 58 56 58 60 65 66 61 55 60 60 60 60 57 61
67 68 69 67 68 66 62 57 54 56 58 61 63 57 57 57 54 57 57 56 60 59
69 69 70 69 66 65 61 59 59 59 60 60 58 59 59 56 58 56 58 61 59 57
70 69 68 67 65 63 61 60 61 62 61 57 56 58 58 55 54 57 56 57 54 54
72 69 66 65 64 63 62 62 62 61 58 56 58 58 53 50 56 55 49 49 48 51
67 65 64 63 62 62 60 60 60 58 56 57 55 54 53 53 50 49 47 47 50 53
64 62 61 60 59 58 57 56 56 57 56 52 54 52 50 48 47 48 47 49 52 52
64 64 61 58 57 57 56 56 51 51 50 51 49 48 46 47 48 49 44 45 49 52
67 66 64 63 62 60 54 53 49 48 46 48 47 40 41 43 52 47 44 43 48 52
64 62 60 58 56 53 51 52 48 49 46 46 46 40 40 40 48 42 42 42 45 51
61 59 58 57 54 53 51 49 46 46 47 49 50 40 40 38 40 42 47 50 51 51
59 57 56 53 52 52 52 51 50 51 49 47 47 40 39 40 48 48 48 50 51 51
59 57 55 52 50 51 50 49 50 48 45 43 49 42 39 41 46 44 45 47 49 43
57 54 53 52 52 51 51 51 50 49 51 51 49 48 39 38 42 38 36 38 40 43

GFSNIL_sfc_temp_042.txt.gz
Temp
69 67 65 65 63 61 61 61 61 61 57 57 57 56 57 56 54 53 53 53 52 53
68 67 66 64 64 62 62 60 56 56 55 55 56 57 54 52 52 53 52 52 52 52
67 64 64 65 63 62 61 57 55 54 54 55 55 54 53 52 53 52 51 52 52 52
66 65 65 64 63 63 57 57 56 55 55 56 54 54 52 52 52 51 51 49 47 47
65 65 64 63 62 59 58 58 58 57 56 57 54 53 51 51 52 49 46 46 45 46
65 64 63 61 59 58 58 57 57 57 55 53 52 51 50 49 47 46 45 45 45 46
61 60 57 57 56 55 55 54 54 53 53 51 50 50 48 46 44 44 45 46 45 47
59 59 57 56 55 54 53 53 51 49 48 48 48 47 46 45 44 44 44 46 46 46
61 59 57 55 54 53 51 49 48 48 46 45 46 41 43 44 44 45 45 43 43 45
62 59 56 55 53 49 48 47 45 45 46 44 45 41 41 40 43 43 41 39 42 42
58 56 55 54 51 48 47 45 45 44 45 44 46 40 39 38 40 40 41 41 41 41
57 55 53 50 48 47 47 46 45 46 47 46 43 40 39 39 40 41 39 44 43 42
56 54 51 50 48 48 49 48 48 46 44 43 44 41 39 39 34 34 32 35 38 38
55 51 49 48 48 48 47 46 43 42 43 45 39 36 36 36 32 29 29 30 31 32

GFSNIL_sfc_temp_048.txt.gz
Temp
63 63 61 62 61 60 60 59 60 59 58 56 57 55 54 54 54 53 52 52 51 51
64 64 64 63 60 61 60 57 56 57 56 55 55 54 53 54 53 53 51 51 50 50
64 65 64 60 60 60 58 57 55 55 56 54 53 55 54 52 52 52 50 50 49 48
65 65 62 61 61 60 57 56 56 55 54 53 54 54 53 52 51 50 49 48 47 46
64 59 59 59 59 58 57 56 55 54 53 54 53 52 51 50 51 49 45 46 46 45
61 59 60 61 61 61 56 55 54 54 53 53 52 51 51 51 49 47 46 46 46 45
61 60 61 61 61 59 56 54 53 53 53 52 51 50 49 47 46 45 45 46 45 45
61 61 59 57 55 54 53 53 52 52 50 50 49 48 46 46 45 45 44 44 45 45
58 58 55 55 54 53 51 51 50 49 47 46 46 41 42 45 44 44 44 42 43 44
56 55 54 53 51 49 48 48 46 45 45 44 44 40 41 41 44 43 42 41 41 42
54 52 51 50 48 47 47 46 44 43 44 44 43 40 40 39 41 40 40 40 37 36
51 49 48 46 46 45 44 43 42 43 43 42 39 39 39 40 39 37 36 36 36 33
49 48 44 42 41 41 42 41 40 38 38 39 37 38 38 37 35 30 28 31 31 34
46 44 43 41 41 40 40 40 38 35 34 35 36 35 36 35 29 29 29 28 28 28

GFSNIL_sfc_temp_051.txt.gz
Temp
58 59 59 60 58 57 58 60 60 59 59 59 59 58 57 56 55 54 54 53 52 51
59 59 60 61 59 60 59 59 57 60 58 58 57 56 54 54 53 54 53 52 51 51
60 62 61 62 60 58 60 57 55 57 56 56 55 54 53 52 53 53 51 51 51 49
61 62 61 61 61 60 58 58 57 56 56 55 54 53 52 52 52 52 50 49 48 47
62 62 61 60 60 60 60 58 58 57 56 55 54 53 52 51 52 51 49 48 47 45
60 61 61 61 61 61 60 59 58 56 55 54 53 52 51 52 50 49 48 47 46 45
61 61 62 62 60 60 60 59 55 54 54 54 52 51 51 51 48 47 46 47 46 46
62 62 60 59 60 61 59 57 55 52 53 51 51 50 49 47 46 45 45 45 45 45
62 59 58 59 60 57 54 54 53 52 51 49 48 42 42 45 45 45 44 43 43 44
60 59 59 57 54 53 52 50 48 47 48 47 45 40 41 41 45 44 43 42 42 42
58 58 54 53 51 49 48 47 45 45 45 45 43 39 40 39 42 42 41 40 39 36
54 51 51 48 47 46 45 44 45 44 45 43 40 39 38 40 40 37 36 36 36 35
51 50 48 46 44 45 45 43 42 40 40 39 39 38 38 38 36 33 32 33 33 33
48 46 45 42 42 42 42 41 36 33 34 36 37 36 37 36 34 32 30 30 27 27

GFSNIL_sfc_temp_054.txt.gz
Temp
55 55 57 56 57 56 56 57 57 57 57 56 57 56 57 57 56 55 54 53 54 55
55 56 57 57 56 57 56 56 55 56 57 58 58 58 57 57 56 54 54 53 54 53
55 56 56 56 57 57 58 55 55 55 56 58 59 59 58 57 55 52 51 52 52 51
56 56 56 57 57 56 57 56 56 56 56 57 56 56 55 55 53 52 51 52 51 49
57 58 56 57 58 58 58 58 59 58 57 57 55 55 54 53 52 52 49 49 49 47
57 57 57 58 60 60 60 60 59 59 58 57 56 54 54 54 52 51 50 49 48 47
57 58 59 60 60 60 61 60 60 57 58 57 56 55 53 52 51 50 49 49 48 47
58 59 59 59 59 60 60 60 60 59 57 56 54 53 52 51 50 48 47 46 47 47
59 58 58 59 59 60 59 59 59 56 55 52 52 45 44 48 47 47 46 44 44 43
59 58 59 59 59 58 58 58 54 53 52 52 51 44 42 42 46 45 44 43 42 41
57 58 57 58 58 57 53 52 50 48 49 46 43 40 40 40 43 42 42 42 40 37
55 56 54 53 51 50 47 47 46 45 44 44 40 39 39 41 40 37 36 36 36 35
52 51 50 47 46 45 45 43 42 40 42 39 39 38 38 39 36 33 32 33 33 33
49 46 45 43 43 43 41 38 36 34 35 37 37 37 37 37 35 32 31 30 29 31

GFSNIL_sfc_temp_057.txt.gz
Temp
64 64 64 64 65 64 63 65 67 63 64 64 65 66 65 65 64 63 62 62 58 55
62 63 63 64 64 65 65 64 64 65 66 66 66 66 67 65 64 62 61 58 57 55
62 62 63 63 63 63 64 65 64 64 66 67 67 67 65 65 64 60 59 58 56 56
62 62 62 62 63 63 64 64 64 64 65 65 65 65 65 64 62 58 58 60 58 60
61 62 61 61 62 63 63 64 64 65 64 65 65 63 62 61 59 57 55 56 55 56
59 59 59 59 60 61 62 62 63 64 64 63 62 60 57 58 57 56 55 55 53 54
60 60 60 61 61 61 62 61 63 63 64 64 64 61 58 56 55 55 54 53 53 53
62 62 63 62 62 62 62 61 63 63 62 63 63 62 60 57 55 53 52 51 51 52
64 63 62 63 62 63 63 63 63 63 62 60 59 49 46 51 54 53 52 48 48 46
64 63 62 63 63 63 62 63 63 61 61 59 60 45 45 44 52 50 49 45 44 43
63 62 63 62 62 62 63 62 60 59 58 56 53 44 44 42 47 45 44 44 42 39
62 62 62 61 61 61 54 51 49 48 47 46 43 41 40 42 41 39 38 39 39 37
62 61 58 55 52 48 47 44 43 42 42 40 40 38 39 40 37 34 33 33 33 34
53 50 47 45 44 43 41 39 36 35 36 38 38 37 38 38 36 33 32 31 30 32

GFSNIL_sfc_temp_060.txt.gz
Temp
67 68 62 62 63 63 65 68 65 63 70 72 68 68 72 71 71 70 69 68 69 71
67 68 69 68 65 65 68 66 63 63 65 69 71 70 71 71 70 70 69 69 70 70
69 70 71 71 70 70 72 72 70 69 68 69 70 71 70 70 71 70 71 71 69 69
70 70 71 71 72 72 72 72 72 71 71 71 71 72 72 72 72 72 71 70 69 66
69 70 69 69 70 71 71 72 72 72 71 71 72 73 72 71 71 71 70 69 65 63
68 68 69 69 69 70 69 70 70 71 70 70 70 71 71 70 69 69 65 61 60 58
69 69 69 69 69 69 69 68 69 70 70 69 71 70 71 69 66 63 60 58 58 58
69 69 69 69 69 69 68 69 69 69 69 69 67 69 69 67 64 60 59 60 57 56
71 70 69 69 68 68 68 68 68 68 68 68 68 55 49 57 66 62 60 58 55 56
71 70 69 69 69 68 67 68 68 69 69 68 69 49 45 45 63 60 58 56 53 48
71 70 70 69 68 68 68 67 67 67 68 64 64 47 45 44 54 56 54 51 48 45
71 70 70 68 68 68 68 67 66 66 66 64 60 44 43 43 45 42 40 41 41 40
73 70 70 69 67 67 66 62 50 43 44 40 43 39 41 43 41 36 35 35 36 36
71 70 69 64 57 50 43 40 37 36 36 38 38 38 38 38 36 34 33 32 32 33

GFSNIL_sfc_temp_066.txt.gz
Temp
63 63 63 62 63 62 62 64 65 63 62 62 64 64 62 61 60 60 60 62 62 62
62 62 63 63 63 63 64 64 64 63 62 62 63 64 65 63 62 62 62 62 61 62
62 64 64 64 63 63 63 64 65 64 64 64 64 65 64 63 63 62 63 63 63 63
62 63 64 63 64 64 63 64 65 65 65 64 64 65 64 64 64 63 63 64 63 62
63 63 63 63 64 65 64 64 65 66 66 66 65 65 64 63 66 64 63 63 63 63
63 63 63 64 64 65 65 65 65 66 66 65 64 64 64 64 64 64 65 65 64 63
65 64 64 66 65 65 67 66 66 66 66 66 66 66 66 65 64 64 64 64 64 64
69 68 67 66 66 66 67 67 67 66 66 67 67 68 66 66 65 64 64 64 65 65
71 70 68 68 68 67 67 67 67 66 66 66 68 57 51 58 65 65 64 63 64 64
72 71 69 69 68 67 66 66 66 66 66 66 66 52 49 48 63 65 64 63 62 62
73 71 71 69 68 67 66 65 65 65 65 64 66 48 46 44 55 60 62 61 60 58
73 72 71 69 67 67 66 65 64 65 64 63 62 39 41 45 56 57 45 39 39 40
57 73 71 69 67 66 66 65 60 44 41 38 40 37 40 43 44 37 34 34 34 35
49 53 53 59 56 60 46 40 37 35 35 35 35 36 37 38 36 34 32 32 32 33

GFSNIL_sfc_temp_072.txt.gz
Temp
60 60 57 56 58 59 60 61 62 61 61 61 62 62 60 60 59 57 56 57 57 57
59 58 57 57 57 58 61 62 60 61 61 61 61 61 60 57 59 58 58 58 57 57
60 61 60 58 57 58 59 60 61 60 61 60 61 61 61 60 59 59 59 60 59 59
60 61 61 60 58 59 59 60 61 61 61 61 61 61 61 62 61 59 60 60 59 60
60 61 61 61 61 61 60 61 60 61 61 61 61 62 61 60 62 60 59 60 60 59
59 60 60 61 62 62 62 62 62 62 60 60 60 60 61 60 60 61 60 61 60 59
58 59 59 61 62 62 62 62 62 62 62 61 61 61 61 60 59 60 60 60 60 59
58 59 59 59 60 61 61 62 62 61 61 62 62 62 60 61 60 59 59 60 60 60
59 59 58 59 59 59 60 60 61 61 61 59 61 52 48 55 60 61 60 59 60 60
51 52 57 59 59 58 58 59 59 60 61 60 61 49 47 46 60 61 61 61 60 60
47 47 49 51 53 59 59 58 59 60 60 61 62 48 47 45 56 60 61 61 60 59
43 44 45 45 46 47 49 59 59 60 59 59 59 38 40 43 56 57 58 57 44 44
40 41 39 41 41 43 45 47 46 39 36 35 37 36 37 38 49 52 41 34 35 35
36 37 37 37 39 39 37 36 34 32 31 32 33 34 35 36 36 35 33 32 32 32

GFSNIL_sfc_temp_075.txt.gz
Temp
56 59 59 58 58 58 59 60 61 59 59 60 60 59 59 58 58 57 56 56 57 57
56 57 58 56 58 59 60 61 61 59 59 60 60 59 59 58 58 58 58 58 58 58
57 57 55 54 54 56 58 59 57 59 59 58 60 60 59 59 60 59 59 60 60 59
56 57 59 56 55 55 55 56 56 59 60 60 60 61 60 61 61 59 59 60 58 58
56 59 59 59 57 56 56 56 58 57 59 61 61 61 60 60 61 59 59 60 59 59
55 56 57 59 60 59 58 57 58 58 58 58 59 59 59 61 61 61 60 60 59 59
55 56 56 57 59 60 61 60 60 60 60 60 59 59 60 60 59 60 61 60 60 60
56 56 56 56 57 58 58 60 61 61 60 61 61 61 59 59 58 58 57 58 58 59
52 55 57 57 57 57 58 59 59 59 59 59 60 52 48 54 60 60 59 57 58 59
48 48 49 52 54 56 57 59 59 59 59 59 59 48 46 46 58 60 60 59 59 59
44 45 46 47 47 47 48 50 56 58 59 59 59 37 40 43 55 58 59 60 60 59
40 41 41 41 41 43 44 43 42 38 38 40 38 36 37 38 48 55 56 58 47 40
38 37 37 38 38 39 39 36 35 33 33 33 33 34 36 37 41 44 45 36 34 34
35 35 35 36 36 36 35 34 32 31 31 31 32 33 35 36 35 34 33 32 31 32

GFSNIL_sfc_temp_078.txt.gz
Temp
54 54 55 56 57 58 58 58 58 59 59 60 59 59 58 57 57 57 56 56 56 56
54 55 58 57 57 58 58 59 58 58 58 59 59 59 59 59 58 57 57 57 56 56
57 55 56 54 55 58 58 58 56 58 59 58 59 59 59 59 59 58 58 57 57 57
57 56 54 55 54 54 57 58 58 59 59 58 58 59 58 59 58 57 57 58 57 57
57 57 54 56 55 55 54 57 58 58 59 59 59 59 59 58 59 58 57 58 58 58
57 57 55 55 56 56 55 55 55 56 56 56 59 59 59 59 59 59 59 59 59 58
57 57 54 55 55 55 55 55 56 56 57 57 57 59 60 59 59 60 60 59 60 60
55 57 56 56 55 55 57 56 57 56 57 59 59 59 58 59 59 58 58 59 59 59
50 51 51 53 55 57 57 58 59 58 58 58 59 50 47 53 58 59 58 57 59 59
46 46 47 49 49 48 48 49 53 56 58 58 57 37 38 42 57 59 59 58 59 59
42 42 43 43 43 43 45 41 40 40 40 43 40 36 37 37 44 54 58 58 56 48
39 39 40 39 39 40 39 37 36 36 35 35 35 35 37 37 43 47 40 37 35 35
37 37 36 37 37 37 37 35 34 32 33 33 32 34 36 37 41 35 34 32 32 33
35 34 35 35 36 35 34 33 32 31 31 31 32 32 34 34 34 32 30 30 30 30

GFSNIL_sfc_temp_081.txt.gz
Temp
64 65 63 64 63 62 62 61 60 60 59 60 60 60 60 59 61 62 61 63 64 63
62 64 63 62 63 61 61 61 59 59 59 59 59 60 59 58 58 58 58 58 61 60
60 62 63 61 60 60 60 62 59 58 59 58 58 59 59 58 60 58 58 58 57 57
59 59 60 61 63 62 61 60 61 60 60 59 59 59 59 60 59 59 59 58 57 57
59 59 58 61 61 60 62 63 61 60 60 60 59 60 59 59 59 58 58 59 58 58
59 58 58 61 62 60 60 63 64 63 61 61 61 59 59 59 58 58 59 59 58 58
59 59 59 61 62 62 63 61 61 61 62 62 64 63 62 60 60 60 60 61 60 60
52 57 58 59 61 62 61 61 61 61 62 63 62 60 60 60 60 60 60 62 63 62
48 49 50 51 50 52 53 52 57 58 58 57 53 38 38 46 61 61 60 59 60 61
45 45 46 47 47 46 44 44 44 43 46 40 39 37 38 37 50 55 58 59 58 57
42 42 43 43 42 41 40 38 38 38 39 38 37 36 37 37 45 49 40 39 39 39
40 40 40 39 38 38 37 36 35 35 34 34 34 35 36 40 41 37 35 35 34 35
38 38 37 37 36 36 36 34 34 32 33 33 33 34 36 38 37 33 31 31 31 32
36 35 36 36 37 36 35 34 33 32 32 32 33 33 33 34 34 32 30 29 29 31

GFSNIL_sfc_temp_084.txt.gz
Temp
70 69 66 65 65 63 61 60 60 59 60 59 59 59 61 61 63 66 66 66 67 68
69 67 65 65 68 68 68 65 60 61 59 59 59 59 59 59 60 62 64 67 68 68
67 69 68 68 66 67 67 64 63 60 60 58 59 59 60 58 60 60 60 60 61 65
65 66 66 66 67 67 67 65 64 60 59 58 58 58 59 59 59 59 59 60 60 59
67 65 63 64 68 69 68 67 66 63 59 59 59 58 58 58 59 60 60 59 59 59
63 62 62 62 66 66 65 66 66 65 63 61 60 60 59 60 60 61 60 61 59 60
60 61 61 61 64 62 62 62 64 64 63 62 62 61 60 59 59 60 61 60 61 60
53 55 58 60 62 65 65 65 66 65 63 63 63 50 48 63 62 61 60 62 64 64
49 49 49 50 50 50 50 48 48 48 50 43 45 37 38 43 60 62 62 61 62 63
46 45 45 46 44 42 42 43 42 42 41 39 38 36 38 37 48 52 43 42 43 46
43 42 43 42 41 39 39 37 37 37 38 37 37 36 38 38 42 38 36 36 36 36
40 40 40 38 38 38 37 35 35 35 35 35 34 36 38 39 36 34 33 33 34 34
37 38 38 38 37 37 37 35 35 34 35 35 35 35 36 37 35 32 32 32 32 33
39 38 39 39 40 39 38 37 36 35 34 34 34 34 34 37 37 34 32 31 31 32

GFSNIL_sfc_temp_087.txt.gz
Temp
74 74 73 70 65 63 62 62 60 59 58 58 59 59 59 60 61 62 65 66 66 68
73 71 71 70 68 65 66 64 61 60 59 58 58 59 59 58 58 61 64 65 64 66
71 70 71 71 69 67 67 65 64 60 61 58 58 58 59 58 59 59 59 62 63 66
68 68 69 67 67 69 69 69 67 63 60 59 59 58 58 58 58 58 58 60 61 61
67 67 66 66 68 69 69 68 65 66 61 59 59 58 58 58 59 58 58 60 59 59
63 63 64 65 65 66 65 66 67 64 61 60 59 58 59 60 61 58 60 60 60 59
62 63 63 64 64 66 66 64 64 65 64 61 60 60 59 59 58 59 61 61 62 62
54 59 60 58 55 61 59 60 61 62 62 59 49 44 46 55 58 60 59 59 60 61
49 50 49 48 48 47 46 46 46 46 45 44 43 37 38 43 55 53 53 54 52 51
45 44 44 43 42 41 40 41 40 40 40 39 38 37 39 40 48 43 41 40 41 43
41 41 41 40 38 37 37 36 36 36 36 36 37 37 37 37 38 36 35 35 35 36
39 38 37 36 36 36 35 35 35 35 35 34 35 37 37 37 35 34 33 33 34 34
37 37 35 34 35 36 36 35 35 34 35 35 33 36 36 37 35 32 31 32 32 33
37 36 35 36 38 38 38 37 36 36 35 34 34 34 35 37 37 35 33 31 30 32

GFSNIL_sfc_temp_090.txt.gz
Temp
71 69 68 67 65 62 62 60 60 58 58 59 60 60 60 60 60 60 60 60 61 65
69 68 67 66 65 64 63 63 60 59 58 58 58 59 59 59 59 59 60 60 60 61
68 67 67 66 63 64 64 63 61 59 59 58 58 58 58 58 59 59 60 60 59 60
68 67 66 65 66 65 63 63 62 60 59 58 57 58 57 57 57 57 57 57 57 58
64 65 65 64 65 65 64 64 62 61 60 59 58 57 57 56 56 55 55 56 56 56
62 62 62 62 63 64 64 63 63 62 59 58 58 57 56 57 56 55 55 56 56 57
61 60 60 61 62 61 63 62 62 61 60 59 58 58 58 57 57 57 56 57 58 58
52 54 54 52 54 54 53 51 51 49 49 48 45 43 46 56 56 56 56 57 58 56
48 47 46 45 45 45 44 44 44 42 42 41 44 38 39 45 49 50 49 48 48 44
43 42 41 41 40 40 39 39 38 39 39 38 38 37 39 40 42 39 39 38 40 41
40 38 38 38 37 36 36 36 35 35 36 36 36 36 36 36 36 35 34 35 35 35
38 36 36 35 35 35 35 34 34 34 34 34 34 36 36 35 34 32 32 33 33 34
36 36 34 34 34 35 34 33 32 31 32 33 33 36 36 35 33 31 30 31 32 34
34 34 34 35 35 35 34 33 31 30 30 31 32 33 36 36 34 31 29 29 29 31

GFSNIL_sfc_temp_093.txt.gz
Temp
68 62 63 61 59 57 57 59 59 58 59 59 59 61 61 61 61 61 60 60 60 60
66 63 61 60 60 59 59 58 58 58 58 58 59 60 60 60 60 61 61 61 60 59
64 63 61 60 59 59 61 61 59 58 57 57 58 58 59 58 59 59 60 60 60 59
63 63 61 60 60 59 61 58 59 59 57 57 57 57 57 58 58 57 58 59 59 59
62 62 62 62 62 62 60 61 60 58 57 57 57 57 56 56 57 58 58 59 58 57
60 61 60 61 62 61 61 61 59 59 58 57 57 56 56 56 56 55 56 56 56 56
59 59 58 59 59 59 58 59 59 58 58 56 56 57 57 56 55 55 55 55 55 55
52 52 51 51 51 50 50 50 51 49 48 47 46 45 50 56 55 55 54 55 54 47
46 45 45 44 44 43 43 43 43 42 42 42 42 39 40 48 48 48 50 46 44 42
41 41 40 40 40 39 38 39 38 38 38 37 37 38 38 39 40 39 38 39 41 41
37 37 38 37 36 36 36 35 35 36 36 36 36 36 36 36 36 35 35 35 36 38
35 35 35 34 34 34 34 33 33 34 34 34 34 35 35 35 33 32 32 34 34 34
34 34 33 33 33 33 32 31 32 31 32 34 33 34 34 34 33 30 30 32 32 33
32 33 33 33 33 33 32 31 30 29 30 31 32 32 33 32 31 30 29 29 30 32

GFSNIL_sfc_temp_099.txt.gz
Temp
61 61 61 60 60 60 60 60 59 60 60 61 61 60 60 60 61 61 60 60 60 60
60 60 60 60 60 60 60 62 62 62 61 59 59 59 60 60 60 60 60 60 60 60
61 61 60 60 59 58 58 58 57 56 55 56 56 56 58 58 59 59 60 60 60 60
59 59 59 59 58 58 57 57 56 55 54 56 55 57 57 57 58 58 59 59 59 59
59 59 59 59 59 58 58 57 58 57 56 57 56 56 56 56 57 57 57 58 59 59
59 59 58 59 59 59 58 56 58 57 57 56 56 56 56 56 56 56 57 57 58 58
58 58 58 59 59 59 57 58 57 58 57 55 56 56 56 56 55 54 54 56 57 58
51 52 53 51 51 51 51 51 51 50 48 47 46 43 44 54 54 54 50 46 45 44
43 45 43 43 43 44 43 42 42 41 41 40 40 37 39 46 51 49 47 43 42 41
36 38 38 38 38 37 37 38 37 37 37 35 36 37 38 38 41 40 40 40 40 39
34 33 34 34 34 34 35 34 35 34 35 34 35 36 36 36 36 35 35 35 36 35
32 32 32 31 31 32 32 32 32 33 33 33 33 35 35 35 34 33 32 34 34 34
32 32 31 31 30 31 31 30 31 31 32 33 32 35 35 35 33 31 31 32 33 33
29 30 31 30 30 30 30 30 29 29 30 31 32 32 34 34 32 31 30 30 30 32

GFSNIL_sfc_temp_102.txt.gz
Temp
65 61 61 63 62 62 61 61 62 61 62 62 61 61 61 60 60 61 60 60 60 60
62 60 60 61 61 61 61 59 60 59 60 60 60 59 60 59 60 60 60 60 60 60
61 61 60 60 59 60 59 59 59 58 58 58 58 60 59 59 59 60 60 60 59 60
60 59 60 59 59 59 59 59 59 59 58 57 57 56 56 56 56 57 58 59 59 59
59 59 58 58 58 58 58 58 58 57 57 56 56 56 56 54 57 57 57 58 58 58
58 58 58 58 58 58 58 58 58 57 57 56 56 56 55 56 56 56 57 57 57 57
50 57 57 58 58 58 58 57 56 58 57 56 55 56 56 56 55 55 53 51 53 55
41 45 50 53 55 55 55 54 52 50 48 47 46 45 46 53 54 52 48 45 44 41
37 38 39 42 44 43 42 42 42 41 41 40 40 38 40 45 48 47 45 42 41 40
36 34 34 36 37 37 37 37 36 36 36 35 37 37 39 39 41 39 39 38 38 38
35 33 33 33 33 33 34 33 34 33 34 35 36 36 36 37 37 35 35 35 35 35
32 32 32 31 31 31 31 31 32 33 33 33 33 35 36 35 34 33 33 34 34 33
30 30 30 30 30 31 31 30 31 31 32 33 32 34 35 35 33 31 31 32 32 34
28 28 29 29 29 29 29 29 29 29 30 30 31 32 33 33 31 31 30 29 30 31

GFSNIL_sfc_temp_105.txt.gz
Temp
67 66 69 70 71 68 65 65 66 64 66 66 65 66 67 67 65 62 61 62 62 62
67 65 65 68 70 67 66 65 64 64 65 65 64 65 65 62 63 65 62 61 62 62
65 65 65 65 67 67 65 65 62 63 64 63 64 64 63 62 64 60 60 61 61 61
61 63 62 62 63 63 63 62 62 63 62 62 63 65 63 65 59 59 59 60 60 60
60 60 60 60 60 61 61 62 62 62 61 61 61 62 60 59 59 59 60 63 64 63
48 57 60 59 59 60 59 60 61 60 60 59 58 58 58 60 61 62 63 62 62 58
42 44 49 60 59 59 59 59 59 60 59 59 59 59 60 59 61 59 56 53 49 47
39 40 41 43 48 57 59 56 58 55 50 50 51 48 55 60 58 53 48 47 45 42
38 37 37 37 39 40 41 42 42 41 41 41 41 38 39 47 50 49 46 44 42 42
36 36 35 35 34 34 35 36 36 36 37 36 37 37 38 39 43 41 41 41 42 40
33 34 34 34 32 32 33 32 33 34 35 35 36 36 36 36 37 36 36 36 37 37
30 30 32 32 31 31 31 32 32 33 33 33 34 35 35 35 34 33 33 35 35 35
29 29 29 30 30 31 30 29 30 29 31 32 32 34 35 34 33 31 31 32 32 33
29 29 30 30 30 30 29 29 28 28 28 29 30 31 33 33 30 29 29 29 29 31

GFSNIL_sfc_temp_108.txt.gz
Temp
53 58 70 72 71 74 72 68 68 68 70 70 70 68 69 70 71 70 69 67 67 65
51 56 69 75 70 70 73 70 68 67 67 68 67 66 68 68 69 68 67 67 65 64
50 56 71 74 70 69 73 71 70 68 65 65 65 65 67 68 69 66 67 66 66 64
53 65 71 69 69 69 70 69 68 67 64 64 64 64 64 65 67 66 66 66 67 63
50 55 62 64 67 67 65 65 64 64 63 63 64 65 65 65 66 66 65 64 62 64
45 46 50 60 61 62 62 62 62 62 62 62 63 63 65 66 65 65 66 65 66 66
41 43 44 47 53 59 60 60 60 61 62 62 63 65 65 63 62 62 62 60 61 59
40 40 39 40 42 44 50 56 58 58 58 57 58 56 63 64 63 59 56 53 52 48
36 38 38 37 38 38 39 40 42 43 45 44 42 39 40 55 58 53 51 47 47 45
34 33 35 36 35 34 34 35 36 36 37 37 38 38 39 40 44 42 42 43 44 44
32 32 33 33 32 32 31 32 32 32 33 34 35 36 36 36 36 35 36 36 37 37
31 31 31 31 30 31 30 29 29 31 32 32 33 35 35 35 33 32 32 33 34 34
32 32 31 31 30 30 30 28 29 28 29 32 31 33 34 34 33 30 30 31 32 33
32 32 32 32 32 32 30 30 28 27 27 28 29 30 32 32 31 30 29 28 28 30

GFSNIL_sfc_temp_111.txt.gz
Temp
48 51 55 60 66 72 77 78 75 68 68 70 70 72 72 73 69 69 70 72 73 74
46 48 50 54 61 69 75 76 74 69 67 68 68 69 70 71 71 69 68 70 71 72
44 47 49 52 55 65 75 76 74 72 68 66 67 67 68 69 70 70 68 69 68 68
44 47 50 55 58 67 72 74 72 69 67 66 66 66 66 68 68 67 66 67 67 67
44 45 48 51 62 68 71 73 72 69 67 66 65 65 66 68 69 66 66 66 66 68
41 42 43 46 50 53 67 71 69 67 66 65 64 63 66 69 67 65 66 67 66 67
36 38 40 43 44 47 50 59 61 62 62 63 63 63 64 67 68 65 65 64 65 63
35 36 38 39 39 41 42 44 46 53 53 57 59 58 62 65 65 61 58 56 54 47
34 33 34 36 36 36 37 37 38 38 40 41 45 43 48 57 59 57 53 48 46 43
33 32 32 34 33 32 33 35 35 36 36 35 38 40 43 43 45 43 42 45 45 43
32 32 32 31 30 31 31 30 30 31 33 34 33 35 36 36 37 35 35 36 38 37
32 32 32 30 30 29 29 29 29 29 30 31 32 34 34 33 33 32 32 33 34 34
33 32 32 32 32 31 30 29 29 28 29 30 30 32 33 32 32 30 30 30 31 33
32 32 32 32 32 32 32 32 31 29 29 28 29 30 31 31 29 28 28 28 28 30

GFSNIL_sfc_temp_114.txt.gz
Temp
47 47 48 49 51 53 56 61 65 69 70 68 69 69 69 68 69 68 67 66 66 66
44 45 45 47 49 50 53 58 60 64 68 68 68 68 69 68 67 67 66 65 65 66
42 43 45 47 47 49 51 54 57 61 68 68 67 67 67 67 68 65 66 64 64 62
41 42 44 45 46 49 52 53 55 60 67 67 66 67 66 67 67 67 66 65 64 62
39 40 41 42 45 47 50 58 57 62 67 68 66 65 66 66 66 66 64 64 64 63
36 37 38 40 42 44 48 51 59 65 66 67 67 65 65 66 65 65 65 65 63 63
35 35 35 38 39 39 42 43 45 55 63 65 64 65 65 65 64 65 65 63 61 60
34 35 35 35 36 36 35 38 41 41 42 45 47 51 60 64 63 63 56 51 47 43
33 33 33 33 33 34 34 34 35 37 38 38 39 38 43 57 61 55 49 43 41 41
33 32 31 31 31 30 30 32 31 33 35 35 36 37 40 42 45 45 46 44 42 41
33 32 32 32 30 29 29 29 29 30 31 33 34 37 36 36 36 36 35 34 35 36
32 32 32 32 31 31 30 29 28 29 29 29 31 34 34 33 32 32 31 32 33 33
31 31 31 31 32 32 32 30 30 30 29 30 29 32 33 32 31 29 29 30 31 33
32 30 30 31 31 31 31 30 29 28 28 29 30 30 32 31 28 27 27 28 29 31

GFSNIL_sfc_temp_117.txt.gz
Temp
43 43 44 44 46 47 48 49 51 52 54 57 60 67 68 67 66 67 66 65 65 66
40 41 41 43 45 45 47 49 50 50 52 55 58 63 67 66 66 66 66 66 65 64
38 40 41 42 42 45 47 48 49 49 50 52 56 61 65 64 66 66 66 65 65 64
38 39 40 40 41 43 45 46 48 50 51 52 54 59 65 64 66 66 66 65 64 62
38 38 38 38 40 42 42 44 46 50 53 53 54 58 64 64 67 65 65 65 63 62
36 36 36 37 38 39 40 42 44 45 49 55 56 58 64 65 65 65 65 65 63 64
34 34 34 35 36 36 38 38 39 43 43 46 49 58 63 64 65 65 65 64 63 63
33 33 33 33 33 34 35 35 36 37 39 40 41 44 49 59 64 63 58 51 48 47
33 33 32 32 32 32 31 32 33 32 34 35 38 38 41 51 59 53 47 42 40 40
32 32 32 32 31 30 30 31 31 31 32 32 33 35 36 37 38 38 41 43 43 40
31 31 31 32 31 30 30 29 30 30 31 31 32 34 34 34 35 33 34 34 37 38
29 28 30 29 29 30 29 28 28 29 30 30 31 33 33 33 32 32 32 32 32 34
29 27 27 28 27 28 29 28 28 27 28 30 30 33 32 31 30 29 30 31 31 32
27 27 26 26 28 27 27 27 26 26 26 27 29 30 33 32 29 29 29 29 29 31

GFSNIL_sfc_temp_120.txt.gz
Temp
37 37 39 42 43 43 44 44 46 46 47 48 49 51 54 57 63 64 63 65 65 64
37 38 39 40 42 42 44 46 47 48 48 49 49 50 52 54 58 64 64 64 65 65
37 39 40 40 39 41 42 44 44 45 46 47 49 50 51 52 57 62 63 65 63 63
37 38 39 38 39 40 41 42 42 43 44 46 47 50 51 52 54 59 62 65 65 64
37 37 36 36 37 38 38 40 40 42 43 46 47 50 51 52 54 57 61 62 63 64
35 35 34 34 35 36 36 38 39 39 41 43 45 46 54 53 53 57 62 63 62 63
33 34 34 34 34 34 35 35 36 37 38 39 41 42 47 54 54 58 63 62 63 64
33 33 34 33 32 32 33 34 34 35 35 37 37 39 39 48 57 59 60 58 59 61
31 32 31 32 31 31 30 31 32 32 33 33 36 35 38 44 44 45 44 43 43 43
28 28 30 30 30 29 28 29 28 30 32 32 32 34 35 36 36 37 37 39 41 39
27 26 28 28 27 28 28 27 27 28 30 31 32 33 34 35 33 33 32 32 32 35
26 24 25 25 25 26 26 26 26 27 28 29 31 34 33 33 32 31 30 31 32 33
25 23 22 23 24 25 25 25 26 26 27 30 30 33 33 31 31 29 30 31 31 33
25 24 23 23 23 23 24 25 25 26 27 27 30 30 32 32 29 28 28 28 28 31

GFSNIL_sfc_temp_123.txt.gz
Temp
38 38 39 40 39 40 41 43 45 45 46 47 48 49 50 49 50 52 55 62 62 62
38 38 38 40 40 40 42 43 44 44 44 45 46 47 48 48 48 51 53 57 62 62
37 38 39 39 38 39 40 41 41 42 42 43 44 46 47 48 49 49 51 55 61 62
37 37 37 36 37 37 38 38 39 40 41 41 42 45 46 47 49 49 51 53 58 62
36 36 36 35 36 36 36 37 37 38 39 40 42 43 44 45 49 50 51 52 53 61
34 34 34 34 34 35 35 35 36 37 37 37 39 40 42 44 45 48 51 53 54 59
31 32 32 33 33 33 33 32 33 35 36 36 37 38 39 40 43 46 54 54 55 59
29 30 31 30 31 31 31 31 32 32 34 35 36 37 36 40 42 44 52 52 50 48
28 28 28 28 28 29 29 29 29 29 31 32 34 35 36 37 39 41 41 41 40 40
26 25 25 27 26 26 26 27 27 28 30 30 32 34 35 34 34 34 34 35 36 36
24 24 24 24 24 24 25 25 26 27 28 29 31 33 33 33 32 32 32 32 33 33
23 22 22 22 22 23 24 25 25 26 26 28 29 32 32 31 30 30 30 32 33 32
24 22 21 22 22 23 24 24 26 26 26 28 26 32 32 30 28 27 28 29 30 32
24 24 23 23 24 23 23 24 25 25 26 26 28 27 31 31 26 26 26 26 27 29

GFSNIL_sfc_temp_126.txt.gz
Temp
39 38 38 39 39 39 40 41 43 44 44 44 46 46 47 47 48 48 48 49 52 59
38 38 37 38 39 39 40 41 42 41 42 43 43 44 45 46 47 48 48 49 51 53
37 38 38 38 37 37 38 39 39 39 40 41 42 43 43 44 46 47 48 49 50 52
35 36 37 36 35 35 36 37 37 38 39 40 40 42 42 44 45 45 47 49 50 51
34 35 34 34 34 34 34 35 35 37 37 38 38 39 40 40 42 43 45 48 49 51
31 32 31 31 32 33 33 33 34 35 35 36 37 38 39 39 39 41 43 47 50 52
29 29 30 30 30 30 31 31 32 33 34 34 36 37 37 37 39 39 42 45 47 50
28 28 28 28 28 29 29 30 30 31 32 33 34 35 35 37 38 39 42 44 46 46
26 26 26 26 26 27 27 28 28 28 29 30 32 33 34 35 34 35 35 36 37 38
24 24 24 25 25 24 25 27 26 26 27 27 30 32 32 32 32 32 32 33 33 35
23 23 24 23 23 23 25 25 26 25 26 26 29 32 31 31 29 29 30 31 31 32
23 22 23 22 22 23 23 24 25 25 25 25 25 31 31 28 27 27 27 28 30 31
24 22 21 22 23 23 23 24 25 24 25 27 25 31 31 27 25 24 25 26 28 30
24 24 22 23 24 23 22 22 23 23 24 24 26 25 30 30 24 22 22 23 24 26

GFSNIL_sfc_temp_129.txt.gz
Temp
42 41 40 40 39 39 40 41 43 43 43 44 45 45 46 46 47 49 49 49 50 53
40 39 39 40 40 39 41 42 41 41 41 41 42 43 43 44 45 46 48 49 50 50
38 38 39 38 37 38 39 39 38 38 39 40 41 42 42 42 44 44 46 48 48 50
36 36 37 37 36 36 37 37 37 37 37 38 39 40 40 40 41 43 45 47 47 49
35 35 35 35 35 36 35 36 36 36 37 37 37 39 38 38 40 40 40 43 45 48
33 33 33 33 33 34 34 35 36 37 37 36 36 36 37 38 38 39 40 41 43 46
31 31 32 32 32 33 34 34 34 34 35 35 34 34 34 36 37 38 40 42 42 45
29 30 30 30 30 31 32 33 32 32 32 34 34 33 32 33 34 35 36 38 40 41
28 28 27 28 29 29 30 29 29 28 29 30 33 32 32 32 31 31 32 33 34 36
26 26 26 27 27 27 28 29 28 27 28 28 30 32 31 31 30 28 28 29 30 32
25 25 27 26 26 26 29 28 27 27 27 27 28 31 30 29 28 27 27 28 28 29
25 24 25 25 25 26 27 27 27 27 26 26 26 30 30 27 26 26 25 27 28 28
26 25 24 26 25 26 26 25 26 26 26 27 25 29 30 27 24 23 24 25 25 28
27 26 26 27 27 25 25 25 24 24 25 25 26 26 29 28 24 23 22 22 22 25

GFSNIL_sfc_temp_132.txt.gz
Temp
45 45 45 44 43 44 43 44 46 46 46 46 46 46 46 46 46 47 48 49 50 51
44 43 42 42 43 42 42 43 44 44 44 44 44 44 44 44 44 45 46 47 49 50
42 42 42 42 40 40 40 41 41 41 42 43 43 44 43 42 43 42 43 46 46 49
41 42 42 40 40 39 40 39 40 41 41 41 42 42 41 40 41 42 42 44 45 46
41 40 39 38 39 38 38 39 39 39 39 40 40 41 40 39 39 39 39 41 42 44
39 37 36 36 37 37 37 38 38 39 38 38 38 38 38 38 36 36 38 39 40 42
37 37 36 36 36 35 36 36 36 37 37 37 37 36 37 37 36 34 34 36 37 41
35 36 36 35 35 36 36 35 35 35 35 35 35 34 34 36 35 34 32 32 34 35
32 32 31 32 32 34 35 34 32 32 33 33 34 31 31 32 33 32 30 29 30 32
30 30 30 31 31 31 31 32 31 30 30 30 31 32 30 30 30 29 28 28 28 29
29 29 30 29 30 30 31 30 30 29 30 29 30 30 30 29 28 27 26 27 28 28
28 28 29 28 29 30 30 30 29 29 28 28 28 30 29 28 27 26 25 25 26 27
30 29 28 29 29 30 30 29 30 29 28 28 27 29 29 26 26 24 24 25 25 27
30 30 30 30 30 30 29 29 29 29 29 28 28 27 28 27 24 24 21 22 22 24

GFSNIL_sfc_temp_135.txt.gz
Temp
50 49 49 47 46 46 44 45 45 45 45 45 46 46 45 45 45 46 47 47 48 49
49 47 45 45 45 43 43 44 44 44 43 43 44 45 44 43 43 44 44 45 46 47
47 46 45 44 41 41 41 42 42 42 42 42 43 43 43 42 43 43 43 44 44 45
45 44 43 42 41 40 41 41 41 41 41 41 41 41 41 41 41 40 40 41 42 43
44 44 42 40 41 40 40 41 40 40 39 39 39 39 38 38 39 38 37 37 38 40
44 43 41 40 39 39 39 39 39 39 38 37 37 36 37 38 38 37 37 36 34 36
41 41 41 41 40 39 39 38 37 37 37 36 36 35 35 37 36 35 35 35 34 33
38 39 38 38 39 40 39 39 36 36 36 36 35 34 33 34 34 32 32 33 33 32
35 34 33 34 35 37 37 36 33 33 34 33 34 32 32 32 32 30 29 29 30 30
32 31 31 33 34 32 32 33 32 31 31 30 30 31 31 32 31 30 27 26 27 28
31 31 32 31 31 31 32 31 31 30 30 30 29 30 30 30 30 29 27 26 25 25
31 30 31 30 30 31 32 31 31 31 29 28 28 30 29 29 28 26 25 25 25 25
31 31 30 31 31 31 32 31 32 31 30 30 27 29 29 28 27 25 24 24 25 27
32 31 32 31 32 32 31 32 31 31 31 29 28 28 29 28 26 25 25 22 23 25

GFSNIL_sfc_temp_138.txt.gz
Temp
47 45 44 43 43 42 41 42 43 42 43 43 43 43 43 42 43 44 43 43 44 44
45 44 43 42 42 41 41 42 42 42 41 42 42 42 41 41 40 41 41 42 42 43
44 44 43 42 40 40 41 41 41 40 40 40 40 40 40 39 40 39 39 40 39 40
44 43 42 40 40 40 40 40 39 39 39 38 37 37 37 37 38 37 37 38 37 37
43 42 40 39 39 39 39 39 39 38 37 37 36 35 35 35 36 35 34 34 34 34
41 40 39 38 39 40 39 38 38 38 36 35 34 33 34 35 34 33 33 32 32 32
38 38 37 38 38 38 38 35 35 36 35 33 32 33 33 33 32 31 31 31 31 31
36 36 36 36 36 35 35 34 33 33 33 31 31 32 32 32 31 29 28 28 28 29
33 32 31 33 32 33 33 32 30 29 30 28 31 32 33 31 29 28 26 24 25 26
29 28 27 31 31 29 29 29 28 27 27 26 26 31 32 31 26 24 23 22 24 24
28 25 29 26 29 27 29 28 27 26 25 25 26 31 30 30 24 23 23 22 24 23
24 24 26 24 27 28 29 28 27 26 24 23 23 31 30 26 24 23 22 23 24 25
27 25 25 28 27 29 30 28 29 26 25 27 22 30 30 27 23 22 21 22 23 28
31 30 30 30 30 30 29 29 26 27 25 23 25 24 30 30 23 22 21 21 21 22